Cheraw, SC

1:49 PM EDT on October 17, 2017 (GMT -0400)
Cheraw

Weather History for KCQW - October, 2012

Change the Weather History Date:

Sunday, October 7, 2012

  Actual Average (KFLO) Record (KFLO)
Temperature  
Mean Temperature 61 °F -  
Max Temperature 69 °F 78 °F 93 °F (1951)
Min Temperature 53 °F 56 °F 41 °F (1964)
Degree Days  
Heating Degree Days 4    
Growing Degree Days 11 (Base 50)    
Moisture  
Dew Point 57 °F    
Average Humidity 88    
Maximum Humidity 100    
Minimum Humidity 68    
Precipitation  
Precipitation 0.00 in - - ()
Sea Level Pressure  
Sea Level Pressure 30.02 in    
Wind  
Wind Speed 12 mph (NNE)    
Max Wind Speed 30 mph    
Max Gust Speed 51 mph    
Visibility 10 miles    
Events      
Averages and records for this station are not official NWS values.
T = Trace of Precipitation, MM = Missing Value Source: NWS Daily Summary

Daily Weather History Graph

Daily Weather History Graph

Search for Another Location

Airport or City:

Trip Planner

Search our weather history database for the weather conditions in past years. The results will help you decide how hot, cold, wet, or windy it might be!

Date:

Astronomy

Oct. 07, 2012 Rise Set
Actual Time 7:19 AM EDT 6:54 PM EDT
Civil Twilight 6:54 AM EDT 7:20 PM EDT
Nautical Twilight 6:25 AM EDT 7:49 PM EDT
Astronomical Twilight 5:55 AM EDT 8:18 PM EDT
Moon No Moon Rise 1:45 PM EDT (10/7)
Length of Visible Light 12h 25m
Length of Day
11h 35m
Waning Gibbous, 56% of the Moon is Illuminated
Oct 7
Waning Gibbous
Oct 8
Last Quarter
Oct 15
New
Oct 21
First Quarter
Oct 29
Full

Hourly Weather History & Observations

Time (EDT) Temp. Dew Point Humidity Pressure Visibility Wind Dir Wind Speed Gust Speed Precip Events Conditions
12:15 AM 64.4 °F 64.4 °F 100% 29.95 in 7.0 mi North 4.6 mph 19.6 mph N/A   Mostly Cloudy
12:35 AM 66.2 °F 64.4 °F 94% 29.95 in 10.0 mi NNW 5.8 mph - N/A   Overcast
12:55 AM 66.2 °F 64.4 °F 94% 29.94 in 10.0 mi NE 6.9 mph - N/A   Scattered Clouds
1:15 AM 64.4 °F 64.4 °F 100% 29.95 in 10.0 mi ENE 4.6 mph - N/A   Partly Cloudy
1:35 AM 64.4 °F 64.4 °F 100% 29.95 in 10.0 mi North 10.4 mph - N/A   Clear
1:55 AM 64.4 °F 64.4 °F 100% 29.96 in 10.0 mi North 13.8 mph 20.7 mph N/A   Clear
2:15 AM 64.4 °F 62.6 °F 94% 29.95 in 10.0 mi North 17.3 mph 23.0 mph N/A   Clear
2:35 AM 64.4 °F 62.6 °F 94% 29.95 in 10.0 mi North 15.0 mph 26.5 mph N/A   Clear
2:55 AM 64.4 °F 62.6 °F 94% 29.95 in 10.0 mi North 13.8 mph 18.4 mph N/A   Partly Cloudy
3:15 AM 62.6 °F 60.8 °F 94% 29.95 in 10.0 mi North 11.5 mph 20.7 mph N/A   Partly Cloudy
3:35 AM 62.6 °F 60.8 °F 94% 29.94 in 10.0 mi NE 11.5 mph - N/A   Clear
3:55 AM 60.8 °F 60.8 °F 100% 29.95 in 10.0 mi NNE 9.2 mph - N/A   Clear
4:15 AM 60.8 °F 60.8 °F 100% 29.96 in 10.0 mi NNW 11.5 mph - N/A   Mostly Cloudy
4:35 AM 60.8 °F 59.0 °F 94% 29.95 in 10.0 mi North 11.5 mph - N/A   Scattered Clouds
4:55 AM 60.8 °F 59.0 °F 94% 29.96 in 10.0 mi North 11.5 mph 16.1 mph N/A   Clear
5:15 AM 59.0 °F 57.2 °F 94% 29.95 in 10.0 mi NNE 12.7 mph 19.6 mph N/A   Partly Cloudy
5:35 AM 59.0 °F 57.2 °F 94% 29.96 in 10.0 mi North 10.4 mph - N/A   Partly Cloudy
5:55 AM 57.2 °F 57.2 °F 100% 29.96 in 10.0 mi NNE 10.4 mph - N/A   Mostly Cloudy
6:15 AM 57.2 °F 57.2 °F 100% 29.96 in 10.0 mi North 6.9 mph - N/A   Mostly Cloudy
6:35 AM 57.2 °F 55.4 °F 94% 29.96 in 10.0 mi North 8.1 mph - N/A   Mostly Cloudy
6:55 AM 57.2 °F 55.4 °F 94% 29.96 in 10.0 mi North 8.1 mph - N/A   Partly Cloudy
7:15 AM 57.2 °F 55.4 °F 94% 29.97 in 10.0 mi Calm Calm - N/A   Mostly Cloudy
7:35 AM 57.2 °F 55.4 °F 94% 29.98 in 10.0 mi North 8.1 mph - N/A   Overcast
7:55 AM 57.2 °F 55.4 °F 94% 29.99 in 10.0 mi NNW 5.8 mph - N/A   Overcast
8:15 AM 57.2 °F 55.4 °F 94% 30.00 in 10.0 mi North 8.1 mph - N/A   Overcast
8:35 AM 59.0 °F 55.4 °F 88% 30.01 in 10.0 mi NNE 10.4 mph - N/A   Overcast
8:55 AM 57.2 °F 55.4 °F 94% 30.05 in 10.0 mi North 26.5 mph 50.6 mph N/A   Overcast
9:15 AM 57.2 °F 55.4 °F 94% 30.04 in 10.0 mi NNE 18.4 mph 34.5 mph N/A   Overcast
9:35 AM 59.0 °F 55.4 °F 88% 30.03 in 10.0 mi NE 16.1 mph 25.3 mph N/A   Overcast
9:55 AM 60.8 °F 57.2 °F 88% 30.04 in 10.0 mi NNE 19.6 mph 24.2 mph N/A   Overcast
10:15 AM 60.8 °F 57.2 °F 88% 30.04 in 10.0 mi NNE 12.7 mph 27.6 mph N/A   Overcast
10:35 AM 62.6 °F 57.2 °F 82% 30.03 in 10.0 mi ENE 16.1 mph 21.9 mph N/A   Overcast
10:55 AM 64.4 °F 57.2 °F 77% 30.02 in 10.0 mi ENE 16.1 mph 19.6 mph N/A   Overcast
11:15 AM 64.4 °F 57.2 °F 77% 30.03 in 10.0 mi East 8.1 mph 21.9 mph N/A   Overcast
11:35 AM 64.4 °F 57.2 °F 77% 30.03 in 10.0 mi NE 13.8 mph 17.3 mph N/A   Overcast
11:55 AM 66.2 °F 57.2 °F 73% 30.03 in 10.0 mi NNE 11.5 mph 17.3 mph N/A   Overcast
12:15 PM 66.2 °F 59.0 °F 78% 30.03 in 10.0 mi North 15.0 mph 23.0 mph N/A   Overcast
12:35 PM 66.2 °F 57.2 °F 73% 30.02 in 10.0 mi North 12.7 mph 23.0 mph N/A   Mostly Cloudy
12:55 PM 64.4 °F 57.2 °F 77% 30.02 in 10.0 mi North 16.1 mph 24.2 mph N/A   Mostly Cloudy
1:15 PM 66.2 °F 57.2 °F 73% 30.01 in 10.0 mi NNE 10.4 mph - N/A   Scattered Clouds
1:35 PM 66.2 °F 57.2 °F 73% 30.01 in 10.0 mi North 15.0 mph 21.9 mph N/A   Clear
1:55 PM 66.2 °F 57.2 °F 73% 30.00 in 10.0 mi NNW 13.8 mph 20.7 mph N/A   Clear
2:15 PM 68.0 °F 57.2 °F 68% 30.00 in 10.0 mi North 12.7 mph 24.2 mph N/A   Clear
2:35 PM 69.8 °F 59.0 °F 68% 30.00 in 10.0 mi North 17.3 mph - N/A   Clear
2:55 PM 66.2 °F 59.0 °F 78% 29.99 in 10.0 mi North 17.3 mph 24.2 mph N/A   Clear
3:15 PM 66.2 °F 57.2 °F 73% 29.99 in 10.0 mi North 18.4 mph 24.2 mph N/A   Clear
3:35 PM 64.4 °F 57.2 °F 77% 29.99 in 10.0 mi North 16.1 mph 24.2 mph N/A   Clear
3:55 PM 66.2 °F 57.2 °F 73% 30.00 in 10.0 mi North 15.0 mph 20.7 mph N/A   Clear
4:15 PM 64.4 °F 57.2 °F 77% 30.01 in 10.0 mi North 18.4 mph - N/A   Clear
4:35 PM 64.4 °F 57.2 °F 77% 30.01 in 10.0 mi North 17.3 mph 23.0 mph N/A   Clear
4:55 PM 64.4 °F 57.2 °F 77% 30.01 in 10.0 mi North 16.1 mph 24.2 mph N/A   Clear
5:15 PM 64.4 °F 57.2 °F 77% 30.02 in 10.0 mi North 17.3 mph 23.0 mph N/A   Clear
5:35 PM 62.6 °F 57.2 °F 82% 30.02 in 10.0 mi North 11.5 mph 20.7 mph N/A   Mostly Cloudy
5:55 PM 60.8 °F 57.2 °F 88% 30.03 in 10.0 mi North 23.0 mph 27.6 mph N/A   Mostly Cloudy
6:15 PM 60.8 °F 55.4 °F 82% 30.05 in 10.0 mi North 17.3 mph 29.9 mph N/A   Mostly Cloudy
6:35 PM 59.0 °F 55.4 °F 88% 30.06 in 10.0 mi North 17.3 mph 28.8 mph N/A   Mostly Cloudy
6:55 PM 57.2 °F 55.4 °F 94% 30.07 in 10.0 mi North 25.3 mph 36.8 mph N/A   Overcast
7:15 PM 57.2 °F 53.6 °F 88% 30.07 in 10.0 mi North 29.9 mph 40.3 mph N/A   Overcast
7:35 PM 55.4 °F 53.6 °F 94% 30.08 in 10.0 mi North 20.7 mph 39.1 mph N/A   Overcast
7:55 PM 55.4 °F 53.6 °F 94% 30.09 in 10.0 mi North 18.4 mph 25.3 mph N/A   Overcast
8:15 PM 55.4 °F 53.6 °F 94% 30.08 in 10.0 mi North 20.7 mph 35.7 mph N/A   Overcast
8:35 PM 55.4 °F 53.6 °F 94% 30.09 in 10.0 mi NNE 24.2 mph 32.2 mph N/A   Unknown
8:55 PM 55.4 °F 51.8 °F 88% 30.10 in 10.0 mi NNE 25.3 mph 35.7 mph N/A   Unknown
9:15 PM 55.4 °F 51.8 °F 88% 30.11 in 10.0 mi NNE 16.1 mph 29.9 mph N/A   Mostly Cloudy
9:35 PM 55.4 °F 51.8 °F 88% 30.11 in 10.0 mi NE 11.5 mph 21.9 mph N/A   Unknown
9:55 PM 53.6 °F 51.8 °F 94% 30.12 in 10.0 mi NNE 17.3 mph 26.5 mph N/A   Unknown
10:15 PM 53.6 °F 51.8 °F 94% 30.12 in 10.0 mi NNE 15.0 mph 20.7 mph N/A   Partly Cloudy
10:35 PM 53.6 °F 51.8 °F 94% 30.12 in 10.0 mi NNE 15.0 mph 21.9 mph N/A   Scattered Clouds
10:55 PM 53.6 °F 51.8 °F 94% 30.12 in 10.0 mi NNE 15.0 mph 23.0 mph N/A   Mostly Cloudy
11:15 PM 53.6 °F 51.8 °F 94% 30.12 in 10.0 mi NNE 12.7 mph - N/A   Mostly Cloudy
11:35 PM 53.6 °F 51.8 °F 94% 30.12 in 10.0 mi NE 15.0 mph - N/A   Mostly Cloudy
11:55 PM 53.6 °F 51.8 °F 94% 30.13 in 10.0 mi NNE 12.7 mph 18.4 mph N/A   Mostly Cloudy